TimeMDT,TemperatureF,Dew PointF,Humidity,Sea Level PressureIn,VisibilityMPH,Wind Direction,Wind SpeedMPH,Gust SpeedMPH,PrecipitationIn,Events,Conditions,WindDirDegrees,DateUTC
12:53 AM,46.9,19.0,33,30.01,10.0,SW,12.7,-,N/A,,Clear,230,2012-10-19 06:53:00
1:53 AM,44.1,19.9,38,29.99,10.0,SW,12.7,-,N/A,,Clear,220,2012-10-19 07:53:00
2:53 AM,44.1,19.0,37,29.95,10.0,SSW,11.5,-,N/A,,Clear,210,2012-10-19 08:53:00
3:53 AM,46.9,18.0,32,29.91,10.0,SW,19.6,-,N/A,,Clear,230,2012-10-19 09:53:00
4:53 AM,46.0,19.0,34,29.88,10.0,SW,17.3,-,N/A,,Clear,230,2012-10-19 10:53:00
5:53 AM,46.9,19.0,33,29.87,10.0,SW,18.4,-,N/A,,Clear,230,2012-10-19 11:53:00
6:53 AM,48.0,19.0,32,29.84,10.0,WSW,20.7,-,N/A,,Scattered Clouds,240,2012-10-19 12:53:00
7:53 AM,48.9,19.0,31,29.82,10.0,WSW,21.9,-,N/A,,Scattered Clouds,240,2012-10-19 13:53:00
8:53 AM,52.0,19.9,28,29.83,10.0,SW,16.1,27.6,N/A,,Mostly Cloudy,230,2012-10-19 14:53:00
9:53 AM,55.9,21.9,27,29.81,10.0,WSW,19.6,27.6,N/A,,Mostly Cloudy,250,2012-10-19 15:53:00
10:53 AM,57.9,23.0,26,29.80,10.0,WSW,19.6,-,N/A,,Mostly Cloudy,240,2012-10-19 16:53:00
11:53 AM,59.0,24.1,26,29.78,10.0,SW,15.0,-,N/A,,Mostly Cloudy,230,2012-10-19 17:53:00
12:53 PM,59.0,24.1,26,29.77,10.0,WSW,16.1,26.5,N/A,,Mostly Cloudy,250,2012-10-19 18:53:00
1:53 PM,61.0,26.1,26,29.73,10.0,WSW,15.0,-,N/A,,Mostly Cloudy,240,2012-10-19 19:53:00
2:53 PM,64.0,27.0,25,29.71,10.0,SSW,12.7,-,N/A,,Mostly Cloudy,210,2012-10-19 20:53:00
3:53 PM,63.0,26.1,25,29.70,10.0,SSW,8.1,-,N/A,,Scattered Clouds,200,2012-10-19 21:53:00
4:53 PM,63.0,27.0,26,29.68,10.0,WSW,10.4,-,N/A,,Scattered Clouds,240,2012-10-19 22:53:00
5:53 PM,61.0,27.0,27,29.68,10.0,WSW,11.5,-,N/A,,Scattered Clouds,240,2012-10-19 23:53:00
6:53 PM,62.1,27.0,26,29.66,10.0,WSW,11.5,-,N/A,,Mostly Cloudy,240,2012-10-20 00:53:00
7:53 PM,61.0,27.0,27,29.65,10.0,WSW,11.5,-,N/A,,Mostly Cloudy,240,2012-10-20 01:53:00
8:53 PM,60.1,27.0,28,29.64,10.0,WSW,13.8,-,N/A,,Scattered Clouds,240,2012-10-20 02:53:00
9:53 PM,60.1,27.0,28,29.63,10.0,WSW,13.8,-,N/A,,Scattered Clouds,240,2012-10-20 03:53:00
10:53 PM,59.0,28.9,32,29.61,10.0,WSW,11.5,-,N/A,,Clear,240,2012-10-20 04:53:00
11:53 PM,59.0,30.0,33,29.59,10.0,WSW,15.0,-,N/A,,Clear,240,2012-10-20 05:53:00